DW8947 Weather Reports


time (UTC)temp
F
wind
direction
speed
knots
gust
knots
rain 1hr
in
rain 24hr
in
rain mn
in
humidity
%
barometer
mb
20260901155704 60 165 0.0 0.0 0.00 0.00 0.00 89 1008.1
20260901155205 60 162 0.0 0.0 0.00 0.00 0.00 89 1008.2
20260901154204 59 164 0.0 0.0 0.00 0.00 0.00 90 1008.2
20260901153705 59 160 0.0 0.0 0.00 0.00 0.00 90 1008.3
20260901152704 59 165 0.0 0.0 0.00 0.00 0.00 90 1008.3
20260901152205 59 165 0.0 0.0 0.00 0.00 0.00 90 1008.3
20260901151705 59 121 0.0 0.0 0.00 0.00 0.00 90 1008.3
20260901151204 59 121 0.0 0.0 0.00 0.00 0.00 90 1008.3
20260901150204 59 110 0.0 0.0 0.00 0.00 0.00 91 1008.2
20260901145704 58 110 0.0 0.0 0.00 0.00 0.00 91 1008.2
20260901144704 58 110 0.0 0.0 0.00 0.00 0.00 91 1008.1
20260901142204 57 110 0.0 0.0 0.00 0.00 0.00 91 1008.1
20260901141704 57 110 0.0 0.0 0.00 0.00 0.00 91 1008.1
20260901140705 57 110 0.0 0.0 0.00 0.00 0.00 91 1008.1
20260901140204 56 110 0.0 0.0 0.00 0.00 0.00 90 1008.1
20260901135204 56 110 0.0 0.0 0.00 0.00 0.00 89 1008.0
20260901134205 56 110 0.0 0.0 0.00 0.00 0.00 89 1007.9
20260901132704 56 110 0.0 0.0 0.00 0.00 0.00 89 1007.8
20260901131704 56 110 0.0 0.0 0.00 0.00 0.00 88 1007.7
20260901125205 56 110 0.0 0.0 0.00 0.00 0.00 87 1007.5
20260901124705 56 110 0.0 0.0 0.00 0.00 0.00 87 1007.4
20260901124204 56 110 0.0 0.0 0.00 0.00 0.00 87 1007.4
20260901123704 56 110 0.0 0.0 0.00 0.00 0.00 87 1007.4
20260901121704 56 110 0.0 0.0 0.00 0.00 0.00 86 1007.3
20260901121204 56 110 0.0 0.0 0.00 0.00 0.00 87 1007.3
20260901120704 56 110 0.0 0.0 0.00 0.00 0.00 87 1007.2
20260901113704 56 110 0.0 0.0 0.00 0.00 0.00 86 1007.3
20260901113205 56 110 0.0 0.0 0.00 0.00 0.00 86 1007.3
20260901112204 56 110 0.0 0.0 0.00 0.00 0.00 85 1007.3
20260901111204 56 110 0.0 0.0 0.00 0.00 0.00 86 1007.4
20260901110205 56 110 0.0 0.0 0.00 0.00 0.00 86 1007.3
20260901105704 56 110 0.0 0.0 0.00 0.00 0.00 85 1007.3
20260901105204 56 110 0.0 0.0 0.00 0.00 0.00 85 1007.3
20260901104704 56 110 0.0 0.0 0.00 0.00 0.00 85 1007.3
20260901104204 56 110 0.0 0.0 0.00 0.00 0.00 86 1007.4
20260901103704 56 110 0.0 0.0 0.00 0.00 0.00 85 1007.4
20260901103204 56 110 0.0 0.0 0.00 0.00 0.00 85 1007.4
20260901102704 56 110 0.0 0.0 0.00 0.00 0.00 86 1007.4
20260901102204 56 110 0.0 0.0 0.00 0.00 0.00 86 1007.4
20260901101205 56 110 0.0 0.0 0.00 0.00 0.00 86 1007.4
20260901095705 56 110 0.0 0.0 0.00 0.00 0.00 86 1007.2
20260901095204 56 110 0.0 0.0 0.00 0.00 0.00 86 1007.2
20260901094705 56 110 0.0 0.0 0.00 0.00 0.00 85 1007.2
20260901093704 56 110 0.0 0.0 0.00 0.00 0.00 85 1007.1
20260901091205 56 110 0.0 0.0 0.00 0.00 0.00 86 1007.3
20260901084704 57 110 0.0 0.0 0.00 0.00 0.00 82 1007.1
20260901084204 57 110 0.0 0.0 0.00 0.00 0.00 82 1007.1
20260901083204 58 110 0.0 0.0 0.00 0.00 0.00 82 1007.0
20260901082704 58 110 0.0 0.0 0.00 0.00 0.00 82 1007.0
20260901075704 58 136 0.0 0.0 0.00 0.00 0.00 83 1006.9
20260901075205 58 107 0.0 0.0 0.00 0.00 0.00 83 1006.9
20260901074704 58 156 0.0 0.0 0.00 0.00 0.00 83 1006.8
20260901074204 58 98 0.0 0.0 0.00 0.00 0.00 82 1006.8
20260901073205 59 93 0.0 0.0 0.00 0.00 0.00 82 1006.8
20260901072704 59 93 0.0 0.0 0.00 0.00 0.00 82 1006.9
20260901072204 59 93 0.0 0.0 0.00 0.00 0.00 81 1006.9
20260901070705 60 93 0.0 0.0 0.00 0.00 0.00 78 1006.7
20260901070205 60 93 0.0 0.0 0.00 0.00 0.00 78 1006.7
20260901065204 60 93 0.0 0.0 0.00 0.00 0.00 79 1006.8
20260901064704 60 93 0.0 0.0 0.00 0.00 0.00 78 1006.8
20260901064204 60 93 0.0 0.0 0.00 0.00 0.00 76 1006.8
20260901063704 61 93 0.0 0.0 0.00 0.00 0.00 76 1006.9
20260901061205 61 93 0.0 0.0 0.00 0.00 0.00 77 1006.8
20260901055204 62 97 0.0 0.0 0.00 0.00 0.00 77 1006.9
20260901054204 62 66 0.0 0.0 0.00 0.00 0.00 76 1007.1
20260901053204 62 113 0.0 0.0 0.00 0.00 0.00 77 1007.2
20260901052704 62 113 0.0 0.0 0.00 0.00 0.00 76 1007.2
20260901052205 62 110 0.0 0.0 0.00 0.00 0.00 75 1007.2
20260901051204 62 125 0.0 0.0 0.00 0.00 0.00 75 1007.2
20260901044704 62 125 0.0 0.0 0.00 0.00 0.00 73 1007.4
20260901044204 62 125 0.0 1.7 0.00 0.00 0.00 73 1007.3
20260901042704 63 125 0.0 0.0 0.00 0.00 0.00 72 1007.3
20260901041704 63 86 0.0 0.9 0.00 0.00 0.00 73 1007.3
20260901041204 63 197 0.0 1.7 0.00 0.00 0.00 72 1007.3
20260901040704 63 197 0.0 0.9 0.00 0.00 0.00 71 1007.2
20260901035704 64 122 0.0 0.9 0.00 0.00 0.00 71 1007.2
20260901034204 64 120 0.0 1.7 0.00 0.00 0.00 73 1006.9
20260901032204 65 115 0.0 1.7 0.00 0.00 0.00 71 1006.7
20260901031704 65 115 0.0 0.9 0.00 0.00 0.00 70 1006.7
20260901031204 66 115 0.0 1.7 0.00 0.00 0.00 69 1006.7
20260901030704 66 115 0.0 1.7 0.00 0.00 0.00 69 1006.6
20260901030204 66 115 0.0 1.7 0.00 0.00 0.00 70 1006.6
20260901025204 67 161 0.0 1.7 0.00 0.00 0.00 66 1006.7
20260901024704 67 161 0.0 1.7 0.00 0.00 0.00 67 1006.7
20260901023704 67 192 0.0 1.7 0.00 0.00 0.00 69 1006.7
20260901023204 67 192 0.0 0.9 0.00 0.00 0.00 69 1006.7
20260901022204 67 215 0.0 1.7 0.00 0.00 0.00 68 1006.8
20260901020704 68 17 0.0 1.7 0.00 0.00 0.00 67 1006.8
20260901020204 68 171 0.0 1.7 0.00 0.00 0.00 66 1006.9
20260901015704 68 149 0.9 1.7 0.00 0.00 0.00 65 1006.8
20260901014705 68 16 0.9 2.6 0.00 0.00 0.00 65 1006.8
20260901014204 69 224 0.9 1.7 0.00 0.00 0.00 64 1006.9
20260901011204 70 311 0.0 1.7 0.00 0.00 0.00 61 1007.0
20260901004705 70 350 0.0 1.7 0.00 0.00 0.00 62 1007.0
20260901004204 70 305 0.0 2.6 0.00 0.00 0.00 63 1007.1
20260901003705 70 332 0.9 2.6 0.00 0.00 0.00 59 1007.1
20260901003204 70 32 0.9 1.7 0.00 0.00 0.00 59 1007.1
20260901000205 71 288 0.9 2.6 0.00 0.00 0.00 57 1007.2
20260831235204 71 10 0.9 5.2 0.00 0.00 0.00 57 1007.3
20260831233704 71 240 0.9 1.7 0.00 0.00 0.00 57 1007.4
20260831233204 71 339 0.9 1.7 0.00 0.00 0.00 59 1007.5
20260831232704 71 107 0.9 1.7 0.00 0.00 0.00 60 1007.6
20260831232204 71 177 0.0 1.7 0.00 0.00 0.00 61 1007.5
20260831231704 71 40 0.9 2.6 0.00 0.00 0.00 60 1007.7
20260831225704 71 154 0.9 2.6 0.00 0.00 0.00 57 1007.8
20260831225204 70 313 0.9 2.6 0.00 0.00 0.00 61 1007.9
20260831222204 71 326 0.9 1.7 0.00 0.00 0.00 59 1008.2
20260831220204 71 331 0.9 2.6 0.00 0.00 0.00 59 1008.4
20260831215204 71 330 0.9 1.7 0.00 0.00 0.00 59 1008.5
20260831214704 71 331 0.9 2.6 0.00 0.00 0.00 58 1008.6
20260831214204 71 302 0.9 1.7 0.00 0.00 0.00 58 1008.7
20260831213204 71 321 0.9 1.7 0.00 0.00 0.00 59 1008.8
20260831212204 71 166 0.9 4.3 0.00 0.00 0.00 61 1008.9
20260831210704 71 313 0.9 1.7 0.00 0.00 0.00 59 1009.2
20260831210204 71 302 0.9 2.6 0.00 0.00 0.00 59 1009.3
20260831205704 71 95 0.9 2.6 0.00 0.00 0.00 58 1009.2
20260831204704 72 325 0.9 1.7 0.00 0.00 0.00 59 1009.3
20260831204204 72 176 0.9 2.6 0.00 0.00 0.00 58 1009.4
20260831203705 72 311 0.0 2.6 0.00 0.00 0.00 58 1009.4
20260831202704 73 298 0.9 1.7 0.00 0.00 0.00 58 1009.5
20260831202204 72 316 0.9 1.7 0.00 0.00 0.00 58 1009.6
20260831201204 72 328 0.9 1.7 0.00 0.00 0.00 59 1009.7
20260831194204 73 347 0.9 1.7 0.00 0.00 0.00 59 1010.1
20260831193704 72 280 0.9 2.6 0.00 0.00 0.00 60 1010.1
20260831193204 72 321 0.9 1.7 0.00 0.00 0.00 61 1010.2
20260831192205 71 325 0.9 1.7 0.00 0.00 0.00 62 1010.4
20260831191204 69 307 0.9 2.6 0.00 0.00 0.00 64 1010.6
20260831185704 68 319 0.9 1.7 0.00 0.00 0.00 66 1010.7
20260831185204 68 190 0.9 1.7 0.00 0.00 0.00 66 1010.7
20260831184204 66 244 0.0 1.7 0.00 0.00 0.00 69 1010.9
20260831181704 64 301 0.9 1.7 0.00 0.00 0.00 76 1011.2
20260831181204 64 208 0.0 1.7 0.00 0.00 0.00 75 1011.3
20260831180204 64 329 0.9 1.7 0.00 0.00 0.00 77 1011.3
20260831175704 63 101 0.0 1.7 0.00 0.00 0.00 77 1011.5
20260831175204 63 333 0.0 1.7 0.00 0.00 0.00 78 1011.5
20260831174204 62 26 0.0 1.7 0.00 0.00 0.00 78 1011.7
20260831173704 62 242 0.0 1.7 0.00 0.00 0.00 81 1011.7
20260831173204 62 286 0.9 1.7 0.00 0.00 0.00 80 1011.7
20260831171204 61 352 0.9 1.7 0.00 0.00 0.00 82 1011.8
20260831170704 61 239 0.9 1.7 0.00 0.00 0.00 83 1011.8
20260831170204 60 292 0.9 2.6 0.00 0.00 0.00 83 1011.9
20260831165704 60 265 0.9 2.6 0.00 0.00 0.00 84 1011.9
20260831165204 60 331 0.0 1.7 0.00 0.00 0.00 86 1011.9
20260831164204 59 278 0.0 1.7 0.00 0.00 0.00 86 1012.0
20260831163704 59 79 0.0 1.7 0.00 0.00 0.00 87 1012.0
20260831162204 58 101 0.9 1.7 0.00 0.00 0.00 88 1012.2
20260831160704 58 286 0.9 1.7 0.00 0.00 0.00 90 1012.2